[Iaude] MPEC C16: 2002 CB19 [a=1.28,e=0.45,i=17.1,H=25.0]

mpec at mpcdb1.cfa.harvard.edu mpec at mpcdb1.cfa.harvard.edu
Sun Feb 4 16:37:17 EST 2018


M.P.E.C. 2018-C16                                Issued 2018 Feb. 4, 21:33 UT
 
     The Minor Planet Electronic Circulars contain information on unusual
         minor planets and routine data on comets.  They are published
    on behalf of Division F of the International Astronomical Union by the
          Minor Planet Center, Smithsonian Astrophysical Observatory,
                          Cambridge, MA 02138, U.S.A.

             Prepared using the Tamkin Foundation Computer Network

                              MPC at CFA.HARVARD.EDU
            URL https://www.minorplanetcenter.net/    ISSN 1523-6714


                                   2002 CB19
 
Additional Observations:
     K02C19B  C2018 02 04.30437 10 47 02.10 +41 28 51.1          18.1 GUEC016703
     K02C19B  C2018 02 04.30977 10 46 42.32 +41 24 55.3          17.9 GUEC016703
     K02C19B  C2018 02 04.31517 10 46 21.78 +41 20 52.2          18.2 GUEC016703
     K02C19B  C2018 02 04.32057 10 46 01.62 +41 16 54.8          18.0 GUEC016703
     K02C19B  C2018 02 04.45387 10 37 58.30 +39 37 59.3          18.1 GUEC016I52
     K02C19B  C2018 02 04.45400 10 37 57.85 +39 37 54.0          18.1 GUEC016I52
     K02C19B  C2018 02 04.45570 10 37 52.01 +39 36 40.0                UEC016I52
     K02C19B  C2018 02 04.81484 10 19 56.11 +35 20 15.7          18.4 RrEC016P93
     K02C19B  C2018 02 04.81737 10 19 49.11 +35 18 29.9          18.9 RrEC016P93
     K02C19B  C2018 02 04.81865 10 19 45.58 +35 17 35.7          18.7 RrEC016P93
     K02C19B  C2018 02 04.81992 10 19 42.08 +35 16 42.7          18.4 RrEC016P93
 
Observer details:
703 Catalina Sky Survey.  Observer D. C. Fuls.  Measurers E. J. Christensen,
    D. C. Fuls, A. R. Gibbs, A. D. Grauer, J. A. Johnson, R. A. Kowalski,
    S. M. Larson, G. J. Leonard, R. G. Matheny, R. L. Seaman, F. C. Shelly.
    0.68-m Schmidt + 10K CCD.
I52 Steward Observatory, Mt. Lemmon Station.  Observer D. C. Fuls.  Measurers
    E. J. Christensen, D. C. Fuls, A. R. Gibbs, A. D. Grauer, J. A. Johnson,
    R. A. Kowalski, S. M. Larson, G. J. Leonard, R. G. Matheny, R. L. Seaman,
    F. C. Shelly.  1.0-m reflector + CCD.
P93 Space Tracking and Communications Center, JAXA.  Observers K. Nishiyama,
    T. Fujiwara.  1.0-m f/3.0 reflector + CCD.
 
First and last observations above in comparison with prediction:
Residuals in seconds of arc (or two decimals in degrees), reference and Delta-T
180204 703 1.45- 2.65+    180204 P93 1.64- 2.21+    MPO 30639   +0.093 day
 
Orbital elements:
2002 CB19                                                Earth MOID = 0.0018 AU
Epoch 2018 Mar. 23.0 TT = JDT 2458200.5                 MPC
M  70.67493              (2000.0)            P               Q
n   0.67800090     Peri.   88.67658     +0.65540070     -0.72921318
a   1.2832636      Node   318.08664     +0.52103606     +0.62508421
e   0.4518867      Incl.   17.12670     +0.54678272     +0.27842032
P   1.45           H   25.0           G   0.15           U   3
Residuals in seconds of arc
020207 704 (1.0+  1.7-)   020208 704  0.6+  0.7+    020308 568  0.0   0.2-
020207 704  0.3+  0.5-    020210 448  1.2+  0.2+    020308 568  0.1-  0.1+
020207 704  0.0   0.2+    020210 448  0.2+  0.6+    180204 703 (8.9-  0.6-)
020207 704  0.5-  0.6-    020210 448  0.6+  0.2+    180204 703 (0.5-  3.0+)
020207 704  0.6-  0.5-    020210 448  0.7-  0.1-    180204 703  1.3-  0.5-
020208 704  0.0   0.3-    020214 696  0.4+  0.2-    180204 703 (1.5+  1.6+)
020208 704  0.2+  0.2-    020214 696  0.2+  1.1-    180204 I52  0.2-  0.1+
020208 704  0.3+  0.8-    020218 950  0.0   0.5+    180204 I52  0.2-  0.5+
020208 704  0.2-  0.3-    020218 950  0.2+  0.6+    180204 I52 (0.3+  2.3+)
020208 704  0.2-  0.6+    020220 291  0.9+  0.4+    180204 P93 (1.4+  0.5+)
020208 704  0.1-  0.1-    020220 291  0.6+  0.9+    180204 P93  0.9+  0.6+
020208 704  0.8-  0.1-    020220 291  1.2-  0.1-    180204 P93  0.7+  0.1-
020208 704  0.9-  0.5+    020220 291  0.1-  0.6-    180204 P93  0.6+  0.0
020208 704  0.0   0.4+    020220 291  0.2-  0.6-

Ephemeris:
2002 CB19                a,e,i = 1.28, 0.45, 17                  q = 0.7034
Date    TT    R. A. (2000) Decl.     Delta      r     Elong.  Phase     V
2018 01 05    19 57 14.1 +14 22 35   0.2708  0.7930    39.4   128.1    27.2
...
2018 01 20    19 43 41.9 +22 36 18   0.1298  0.8938    43.2   131.1    26.1
...
2018 01 28    19 06 03.3 +34 31 15   0.06043 0.9536    57.4   119.5    23.6
...
2018 02 03    12 50 32.8 +56 23 04   0.02576 0.9996   122.2    56.5    19.1
2018 02 04    11 07 28.9 +45 18 21   0.02713 1.0072   141.9    37.1    18.7
2018 02 05    10 12 23.6 +33 17 11   0.03120 1.0149   158.2    21.1    18.5
...
2018 02 11    08 48 50.9 +03 10 00   0.07696 1.0611   163.7    15.1    20.4
...
2018 02 19    08 30 58.7 -04 37 45   0.1500  1.1219   150.9    25.4    22.3
...
2018 03 06    08 28 38.7 -07 31 19   0.2984  1.2321   138.7    32.1    24.2

A. U. Tomatic                (C) Copyright 2018 MPC           M.P.E.C. 2018-C16



More information about the Iaude mailing list